User: anonymous   Login
Location: ČR
(50.0000°N, 15.0000°E)
Time: 14:10:14
(UTC+00:00)
Language:

Vanguard 2 - Orbit

View from above orbital plane
View from above orbital plane
View from above satellite
View from above satellite

Ground track
Ground track

The orbit data is extracted from the following two-line orbital elements,

1 00011U 59001A   21297.55800952  .00000085  00000-0  36340-4 0  9995
2 00011  32.8705   0.0651 1466793 161.1593 204.9641 11.85798370333647
Epoch (UTC): 24 October 2021 13:23:32
Eccentricity: 0.1466793
inclination: 32.8705°
perigee height: 553 km
apogee height: 2936 km
right ascension of ascending node: 0.0651°
argument of perigee: 161.1593°
revolutions per day: 11.85798370
mean anomaly at epoch: 204.9641°
orbit number at epoch: 33364

The dashed part of the orbit path shows where the satellite is in the earth's shadow,  

DLR